AXB1996 VEAT-VECC

Flight info

Callsign AXB1996
Flight time 0h 44m
Altitude 24000
Route AAT B593 NOKAT NOKAT2G
Aircraft B38M/M-SDE1FGHILORVWXY/HB1

Departure

Time 2026-05-08 10:27
Airport Agartala - Maharaja Bir Bikram Airport (VEAT)

Arrival

Time 2026-05-08 11:12
Airport Netaji Subhash Chandra Bose International Airport (VECC)
Time Latitude Longitude Altitude Speed Heading
2026-05-08 10:09 23.88481 91.24331 73 ft 0 kts 95°
2026-05-08 10:18 23.88481 91.24330 73 ft 0 kts 94°
2026-05-08 10:19 23.88484 91.24315 73 ft 2 kts 115°
2026-05-08 10:19 23.88492 91.24301 72 ft 2 kts 130°
2026-05-08 10:19 23.88503 91.24290 72 ft 2 kts 148°
2026-05-08 10:20 23.88532 91.24281 72 ft 1 kts 182°
2026-05-08 10:20 23.88537 91.24281 72 ft 0 kts 187°
2026-05-08 10:24 23.88524 91.24279 72 ft 4 kts 186°
2026-05-08 10:24 23.88493 91.24273 72 ft 1 kts 194°
2026-05-08 10:25 23.88482 91.24270 72 ft 2 kts 198°
2026-05-08 10:25 23.88465 91.24263 72 ft 1 kts 201°
2026-05-08 10:25 23.88464 91.24262 72 ft 0 kts 201°
2026-05-08 10:26 23.88462 91.24261 72 ft 2 kts 211°
2026-05-08 10:26 23.88461 91.24244 71 ft 3 kts 298°
2026-05-08 10:26 23.88481 91.24181 70 ft 13 kts 276°
2026-05-08 10:26 23.88568 91.24080 68 ft 28 kts 360°
2026-05-08 10:27 23.88879 91.24096 69 ft 74 kts
2026-05-08 10:27 23.89660 91.24171 71 ft 144 kts
2026-05-08 10:27 23.90790 91.24307 389 ft 170 kts 10°
2026-05-08 10:27 23.92013 91.24330 913 ft 186 kts 341°
2026-05-08 10:28 23.93048 91.23380 1322 ft 207 kts 297°
2026-05-08 10:28 23.93215 91.21703 1733 ft 237 kts 257°
2026-05-08 10:28 23.92291 91.20117 2138 ft 262 kts 220°
2026-05-08 10:28 23.90688 91.19037 2558 ft 277 kts 210°
2026-05-08 10:29 23.88986 91.17892 2961 ft 291 kts 218°
2026-05-08 10:29 23.87730 91.16778 3280 ft 293 kts 224°
2026-05-08 10:29 23.86235 91.15191 3687 ft 294 kts 227°
2026-05-08 10:30 23.84804 91.13554 4092 ft 294 kts 228°
2026-05-08 10:30 23.83378 91.11910 4499 ft 294 kts 228°
2026-05-08 10:30 23.81935 91.10266 4904 ft 296 kts 227°
2026-05-08 10:30 23.80503 91.08659 5304 ft 297 kts 227°
2026-05-08 10:31 23.79012 91.07005 5726 ft 301 kts 226°
2026-05-08 10:31 23.77510 91.05347 6138 ft 303 kts 226°
2026-05-08 10:31 23.76003 91.03676 6556 ft 304 kts 227°
2026-05-08 10:31 23.74491 91.01998 6962 ft 306 kts 226°
2026-05-08 10:32 23.72971 91.00316 7371 ft 309 kts 226°
2026-05-08 10:32 23.71434 90.98618 7786 ft 309 kts 226°
2026-05-08 10:32 23.69892 90.96915 8197 ft 312 kts 226°
2026-05-08 10:32 23.68354 90.95214 8603 ft 313 kts 226°
2026-05-08 10:33 23.66835 90.93529 9006 ft 315 kts 226°
2026-05-08 10:33 23.65257 90.91780 9421 ft 317 kts 226°
2026-05-08 10:33 23.63700 90.90056 9828 ft 316 kts 226°
2026-05-08 10:33 23.62130 90.88321 10239 ft 320 kts 226°
2026-05-08 10:34 23.60563 90.86588 10643 ft 321 kts 227°
2026-05-08 10:34 23.58974 90.84824 11035 ft 323 kts 227°
2026-05-08 10:34 23.57377 90.83053 11421 ft 324 kts 227°
2026-05-08 10:34 23.55777 90.81284 11809 ft 327 kts 227°
2026-05-08 10:35 23.54158 90.79497 12195 ft 329 kts 227°
2026-05-08 10:35 23.52535 90.77705 12579 ft 330 kts 227°
2026-05-08 10:35 23.50893 90.75891 12967 ft 331 kts 227°
2026-05-08 10:35 23.49265 90.74097 13349 ft 333 kts 227°
2026-05-08 10:36 23.47627 90.72289 13733 ft 334 kts 227°
2026-05-08 10:36 23.45981 90.70476 14121 ft 333 kts 227°
2026-05-08 10:36 23.44322 90.68649 14509 ft 334 kts 227°
2026-05-08 10:36 23.42666 90.66821 14895 ft 334 kts 227°
2026-05-08 10:37 23.41005 90.64986 15282 ft 337 kts 227°
2026-05-08 10:37 23.39349 90.63160 15667 ft 337 kts 227°
2026-05-08 10:37 23.37675 90.61314 16056 ft 337 kts 228°
2026-05-08 10:37 23.36020 90.59495 16437 ft 339 kts 228°
2026-05-08 10:38 23.34335 90.57646 16821 ft 339 kts 228°
2026-05-08 10:38 23.32660 90.55808 17207 ft 340 kts 228°
2026-05-08 10:38 23.30985 90.53964 17598 ft 341 kts 228°
2026-05-08 10:38 23.29308 90.52114 17982 ft 341 kts 228°
2026-05-08 10:39 23.27608 90.50240 18371 ft 342 kts 228°
2026-05-08 10:39 23.25907 90.48373 18760 ft 342 kts 228°
2026-05-08 10:39 23.24221 90.46520 19147 ft 343 kts 229°
2026-05-08 10:39 23.22610 90.44573 19536 ft 342 kts 234°
2026-05-08 10:40 23.21331 90.42340 19928 ft 343 kts 246°
2026-05-08 10:40 23.20492 90.39888 20312 ft 344 kts 253°
2026-05-08 10:40 23.19850 90.37315 20709 ft 344 kts 255°
2026-05-08 10:40 23.19263 90.34785 21100 ft 346 kts 255°
2026-05-08 10:41 23.18642 90.32215 21492 ft 349 kts 254°
2026-05-08 10:41 23.17993 90.29658 21884 ft 348 kts 253°
2026-05-08 10:41 23.17313 90.27078 22277 ft 349 kts 253°
2026-05-08 10:41 23.16622 90.24527 22659 ft 351 kts 252°
2026-05-08 10:42 23.15904 90.21921 22784 ft 354 kts 252°
2026-05-08 10:42 23.15190 90.19343 22796 ft 352 kts 252°
2026-05-08 10:42 23.14473 90.16740 22797 ft 352 kts 252°
2026-05-08 10:42 23.13769 90.14188 22795 ft 352 kts 252°
2026-05-08 10:43 23.13055 90.11631 22792 ft 351 kts 252°
2026-05-08 10:43 23.12333 90.09062 22788 ft 352 kts 252°
2026-05-08 10:43 23.11611 90.06471 22785 ft 353 kts 252°
2026-05-08 10:43 23.10891 90.03896 22786 ft 353 kts 252°
2026-05-08 10:44 23.10171 90.01336 22784 ft 352 kts 252°
2026-05-08 10:44 23.09447 89.98759 22784 ft 352 kts 252°
2026-05-08 10:44 23.08726 89.96205 22782 ft 351 kts 252°
2026-05-08 10:44 23.07995 89.93642 22782 ft 354 kts 252°
2026-05-08 10:45 23.07261 89.91074 22785 ft 353 kts 252°
2026-05-08 10:45 23.06521 89.88497 22788 ft 352 kts 252°
2026-05-08 10:45 23.05781 89.85931 22783 ft 353 kts 252°
2026-05-08 10:45 23.05039 89.83354 22784 ft 354 kts 252°
2026-05-08 10:46 23.04294 89.80779 22784 ft 353 kts 252°
2026-05-08 10:46 23.03556 89.78213 22782 ft 355 kts 252°
2026-05-08 10:46 23.02821 89.75622 22782 ft 354 kts 252°
2026-05-08 10:46 23.02080 89.73035 22787 ft 354 kts 252°
2026-05-08 10:47 23.01332 89.70445 22785 ft 355 kts 252°
2026-05-08 10:47 23.00578 89.67833 22782 ft 354 kts 252°
2026-05-08 10:47 22.99834 89.65260 22790 ft 355 kts 252°
2026-05-08 10:47 22.99089 89.62687 22794 ft 355 kts 252°
2026-05-08 10:48 22.98341 89.60108 22790 ft 354 kts 252°
2026-05-08 10:48 22.97591 89.57526 22795 ft 353 kts 252°
2026-05-08 10:48 22.96852 89.54970 22792 ft 354 kts 252°
2026-05-08 10:48 22.96106 89.52379 22756 ft 355 kts 252°
2026-05-08 10:49 22.95354 89.49778 22531 ft 356 kts 252°
2026-05-08 10:49 22.94616 89.47212 22283 ft 355 kts 252°
2026-05-08 10:49 22.93871 89.44626 22040 ft 356 kts 252°
2026-05-08 10:49 22.93122 89.42052 21832 ft 358 kts 252°
2026-05-08 10:50 22.92360 89.39449 21798 ft 356 kts 252°
2026-05-08 10:50 22.91596 89.36832 21807 ft 359 kts 251°
2026-05-08 10:50 22.90808 89.34193 21807 ft 361 kts 251°
2026-05-08 10:50 22.90038 89.31604 21806 ft 360 kts 251°
2026-05-08 10:51 22.89260 89.28970 21749 ft 362 kts 251°
2026-05-08 10:51 22.88488 89.26341 21514 ft 362 kts 251°
2026-05-08 10:51 22.87718 89.23704 21266 ft 361 kts 252°
2026-05-08 10:51 22.86955 89.21086 21031 ft 362 kts 251°
2026-05-08 10:52 22.86178 89.18420 20787 ft 363 kts 252°
2026-05-08 10:52 22.85414 89.15799 20545 ft 366 kts 252°
2026-05-08 10:52 22.84632 89.13121 20300 ft 366 kts 252°
2026-05-08 10:52 22.83845 89.10426 20056 ft 368 kts 252°
2026-05-08 10:53 22.83065 89.07758 19833 ft 369 kts 252°
2026-05-08 10:53 22.82291 89.05115 19793 ft 353 kts 252°
2026-05-08 10:53 22.81555 89.02605 19793 ft 335 kts 252°
2026-05-08 10:53 22.80854 89.00221 19792 ft 323 kts 252°
2026-05-08 10:54 22.80160 88.97861 19788 ft 326 kts 251°
2026-05-08 10:54 22.79345 88.95519 19787 ft 328 kts 245°
2026-05-08 10:54 22.78171 88.93363 19786 ft 328 kts 233°
2026-05-08 10:54 22.76637 88.91486 19667 ft 330 kts 227°
2026-05-08 10:55 22.74987 88.89742 19428 ft 329 kts 226°
2026-05-08 10:55 22.73276 88.88005 19186 ft 328 kts 225°
2026-05-08 10:55 22.71577 88.86282 18937 ft 328 kts 226°
2026-05-08 10:55 22.69904 88.84572 18656 ft 328 kts 226°
2026-05-08 10:56 22.68210 88.82825 17997 ft 335 kts 226°
2026-05-08 10:56 22.66490 88.81038 17126 ft 344 kts 226°
2026-05-08 10:56 22.64757 88.79234 16804 ft 335 kts 226°
2026-05-08 10:56 22.63076 88.77486 16671 ft 325 kts 226°
2026-05-08 10:57 22.61425 88.75766 16401 ft 325 kts 226°
2026-05-08 10:57 22.59772 88.74035 16092 ft 324 kts 227°
2026-05-08 10:57 22.56545 88.70560 15539 ft 323 kts 227°
2026-05-08 10:58 22.54937 88.68810 15251 ft 321 kts 228°
2026-05-08 10:58 22.53388 88.67017 14821 ft 331 kts 230°
2026-05-08 10:58 22.51850 88.65130 14328 ft 330 kts 231°
2026-05-08 10:58 22.50338 88.63248 13877 ft 327 kts 231°
2026-05-08 10:59 22.48821 88.61371 13543 ft 321 kts 231°
2026-05-08 10:59 22.47355 88.59574 13459 ft 308 kts 231°
2026-05-08 10:59 22.45935 88.57842 13379 ft 306 kts 230°
2026-05-08 10:59 22.44496 88.56089 13277 ft 308 kts 230°
2026-05-08 11:00 22.43027 88.54381 13194 ft 309 kts 226°
2026-05-08 11:00 22.41282 88.52968 13099 ft 311 kts 207°
2026-05-08 11:00 22.39207 88.52263 12946 ft 315 kts 192°
2026-05-08 11:00 22.37001 88.51923 12690 ft 315 kts 188°
2026-05-08 11:01 22.34816 88.51491 12311 ft 312 kts 202°
2026-05-08 11:01 22.32945 88.50285 11897 ft 306 kts 227°
2026-05-08 11:01 22.31775 88.48402 11596 ft 295 kts 253°
2026-05-08 11:01 22.06395 88.48283 11404 ft 284 kts 274°
2026-05-08 11:02 22.06817 88.46208 10993 ft 281 kts 298°
2026-05-08 11:02 22.09578 88.43250 10296 ft 274 kts 327°
2026-05-08 11:02 22.11222 88.42213 10083 ft 267 kts 332°
2026-05-08 11:03 22.12907 88.41334 9742 ft 266 kts 336°
2026-05-08 11:03 22.14611 88.40563 9576 ft 257 kts 338°
2026-05-08 11:03 22.16302 88.39941 9488 ft 251 kts 346°
2026-05-08 11:03 22.18059 88.39625 9134 ft 254 kts 355°
2026-05-08 11:04 22.19884 88.39602 8712 ft 258 kts
2026-05-08 11:04 22.21709 88.39738 8324 ft 260 kts
2026-05-08 11:04 22.23537 88.39938 7943 ft 261 kts
2026-05-08 11:04 22.25359 88.40151 7540 ft 260 kts
2026-05-08 11:05 22.27164 88.40361 7191 ft 254 kts
2026-05-08 11:05 22.28960 88.40566 6832 ft 254 kts
2026-05-08 11:05 22.30738 88.40769 6465 ft 255 kts
2026-05-08 11:05 22.32521 88.40974 6114 ft 255 kts
2026-05-08 11:06 22.34301 88.41180 5756 ft 252 kts
2026-05-08 11:06 22.36076 88.41385 5396 ft 250 kts
2026-05-08 11:06 22.37817 88.41585 5050 ft 249 kts
2026-05-08 11:06 22.39576 88.41788 4704 ft 247 kts
2026-05-08 11:07 22.41294 88.41986 4354 ft 244 kts
2026-05-08 11:07 22.42996 88.42183 4055 ft 239 kts
2026-05-08 11:07 22.44667 88.42375 3717 ft 238 kts
2026-05-08 11:07 22.46318 88.42567 3410 ft 236 kts
2026-05-08 11:08 22.47993 88.42761 3078 ft 234 kts
2026-05-08 11:08 22.49609 88.42947 2770 ft 232 kts
2026-05-08 11:08 22.51232 88.43136 2480 ft 227 kts
2026-05-08 11:08 22.52811 88.43318 2164 ft 219 kts
2026-05-08 11:09 22.54287 88.43490 1886 ft 201 kts
2026-05-08 11:09 22.55644 88.43648 1662 ft 181 kts
2026-05-08 11:09 22.56830 88.43784 1407 ft 164 kts
2026-05-08 11:09 22.57945 88.43911 1205 ft 153 kts
2026-05-08 11:10 22.59012 88.44035 1015 ft 152 kts
2026-05-08 11:10 22.60067 88.44157 820 ft 149 kts
2026-05-08 11:10 22.61115 88.44277 631 ft 148 kts
2026-05-08 11:10 22.62153 88.44397 443 ft 145 kts
2026-05-08 11:11 22.63158 88.44513 259 ft 143 kts
2026-05-08 11:11 22.64171 88.44631 76 ft 143 kts
2026-05-08 11:11 22.65134 88.44746 26 ft 128 kts
2026-05-08 11:11 22.65901 88.44821 23 ft 89 kts 353°
2026-05-08 11:12 22.66318 88.44859 23 ft 30 kts
2026-05-08 11:12 22.66363 88.44857 23 ft 20 kts 324°
2026-05-08 11:12 22.66432 88.44799 25 ft 11 kts 330°
2026-05-08 11:12 22.66514 88.44694 26 ft 26 kts 309°
2026-05-08 11:13 22.66546 88.44531 26 ft 18 kts 221°
2026-05-08 11:13 22.66409 88.44504 26 ft 22 kts 189°
2026-05-08 11:13 22.66220 88.44467 26 ft 27 kts 180°
2026-05-08 11:13 22.66050 88.44460 27 ft 18 kts 176°
2026-05-08 11:14 22.66053 88.44484 26 ft 1 kts 331°
2026-05-08 11:14 22.66058 88.44476 26 ft 4 kts 285°
2026-05-08 11:14 22.65986 88.44432 27 ft 15 kts 185°
2026-05-08 11:14 22.65863 88.44420 27 ft 14 kts 185°
2026-05-08 11:15 22.65836 88.44408 27 ft 0 kts 269°